This is the latest recevied weather packets stored in our database for station/object KV9E. If no packets are shown the sender has not sent any weather packets the latest 10 day(s).
| Time | Temp. | Humidity | Pressure | Rain* | Wind** | Luminosity | Snow |
|---|---|---|---|---|---|---|---|
| 1777581798 | 16.11° C | 46% | 1014 hPa | 0 mm | - | 416 W/m² | - |
| 1777581496 | 15.56° C | 51% | 1013.8 hPa | 0 mm | - | 436 W/m² | - |
| 1777581192 | 15° C | 48% | 1014 hPa | 0 mm | - | 478 W/m² | - |
| 1777580886 | 15° C | 52% | 1014 hPa | 0 mm | - | 438 W/m² | - |
| 1777580581 | 15° C | 49% | 1014.3 hPa | 0 mm | - | 435 W/m² | - |
| 1777580277 | 15° C | 51% | 1014.2 hPa | 0 mm | - | 380 W/m² | - |
| 1777579974 | 15° C | 53% | 1014.4 hPa | 0 mm | - | 506 W/m² | - |
| 1777579669 | 15° C | 55% | 1014.5 hPa | 0 mm | - | 345 W/m² | - |
| 1777579368 | 15° C | 53% | 1014.6 hPa | 0 mm | - | 464 W/m² | - |
| 1777579063 | 15° C | 53% | 1014.4 hPa | 0 mm | - | 465 W/m² | - |
| 1777578753 | 14.44° C | 51% | 1014.6 hPa | 0 mm | - | 400 W/m² | - |
| 1777578452 | 14.44° C | 54% | 1014.7 hPa | 0 mm | - | 429 W/m² | - |
| 1777578148 | 14.44° C | 54% | 1014.7 hPa | 0 mm | - | 481 W/m² | - |
| 1777577844 | 14.44° C | 52% | 1014.8 hPa | 0 mm | - | 447 W/m² | - |
| 1777577540 | 13.89° C | 55% | 1014.7 hPa | 0 mm | - | 415 W/m² | - |
| 1777577237 | 13.89° C | 54% | 1014.7 hPa | 0 mm | - | 443 W/m² | - |
| 1777576933 | 13.89° C | 58% | 1015 hPa | 0 mm | - | 331 W/m² | - |
| 1777576623 | 13.33° C | 57% | 1014.7 hPa | 0 mm | - | 338 W/m² | - |
| 1777576318 | 13.33° C | 56% | 1014.6 hPa | 0 mm | - | 356 W/m² | - |
| 1777576015 | 13.33° C | 57% | 1014.7 hPa | 0 mm | - | 332 W/m² | - |
| 1777575711 | 13.33° C | 59% | 1014.8 hPa | 0 mm | - | 359 W/m² | - |
| 1777575407 | 13.33° C | 56% | 1014.7 hPa | 0 mm | - | 350 W/m² | - |
| 1777575103 | 13.33° C | 56% | 1014.6 hPa | 0 mm | - | 308 W/m² | - |
| 1777574799 | 13.33° C | 57% | 1014.7 hPa | 0 mm | - | 368 W/m² | - |
| 1777574497 | 13.89° C | 58% | 1014.7 hPa | 0 mm | - | 348 W/m² | - |
* Rain latest hour (hover to see other rain measurements)
** Current wind speed in m/s (hover to see current wind gust speed)